Weather History for Terre Haute, IN

Change the Weather History Date:

Saturday, February 8, 2014

  Actual Average Record
Temperature  
Mean Temperature 16 °F 30 °F  
Max Temperature 25 °F 39 °F 59 °F (2001)
Min Temperature 7 °F 22 °F -9 °F (1978)
Degree Days  
Heating Degree Days 49 35  
Month to date heating degree days 366 282  
Since 1 July heating degree days 3905 3532  
Cooling Degree Days 0 0  
Month to date cooling degree days 0 0  
Year to date cooling degree days 0 0  
Moisture  
Dew Point 11 °F    
Average Humidity 75    
Maximum Humidity 88    
Minimum Humidity 61    
Precipitation  
Precipitation 0.03 in 0.07 in 0.31 in (1973)
Month to date precipitation 1.54 0.56  
Year to date precipitation 3.31 2.92  
Sea Level Pressure  
Sea Level Pressure 30.27 in    
Wind  
Wind Speed 4 mph (SSE)    
Max Wind Speed 12 mph    
Max Gust Speed 14 mph    
Visibility 6 miles    
Events Snow    
T = Trace of Precipitation, MM = Missing Value Source: NWS Daily Summary

Daily Weather History Graph

Daily Weather History Graph

Search for Another Location

Airport:

Trip Planner

Search our weather history database for the weather conditions in past years. The results will help you decide how hot, cold, wet, or windy it might be!

Date:

Astronomy

Feb. 08, 2014 Rise Set
Actual Time 7:49 AM EST 6:17 PM EST
Civil Twilight 7:21 AM EST 6:45 PM EST
Nautical Twilight 6:49 AM EST 7:17 PM EST
Astronomical Twilight 6:18 AM EST 7:48 PM EST
Moon 1:12 PM EST (2/8) 3:01 AM EST (2/8)
Length of Visible Light 11h 24m
Length of Day
10h 28m
Waxing Gibbous, 68% of the Moon is Illuminated
Feb 8
Waxing Gibbous
Feb 14
Full
Feb 22
Last Quarter
Mar 1
New
Mar 8
First Quarter

Hourly Weather History & Observations

Time (EST) Temp. Windchill Dew Point Humidity Pressure Visibility Wind Dir Wind Speed Gust Speed Precip Events Conditions
12:53 AM 8.1 °F - 1.0 °F 73% 30.42 in 10.0 mi Calm Calm - N/A   Overcast
1:53 AM 10.0 °F - -0.0 °F 64% 30.40 in 10.0 mi Calm Calm - N/A   Overcast
2:53 AM 10.9 °F 4.7 °F 1.9 °F 67% 30.37 in 10.0 mi East 3.5 mph - N/A   Overcast
3:53 AM 12.0 °F 4.1 °F 1.9 °F 64% 30.35 in 10.0 mi ESE 4.6 mph - N/A   Overcast
4:53 AM 12.0 °F - 1.9 °F 64% 30.36 in 10.0 mi Calm Calm - N/A   Overcast
5:53 AM 12.9 °F - 3.0 °F 65% 30.35 in 10.0 mi Calm Calm - N/A   Overcast
6:38 AM 12.2 °F 4.3 °F 6.8 °F 79% 30.29 in 2.0 mi ESE 4.6 mph - 0.00 in Snow Light Snow
6:53 AM 12.0 °F 4.1 °F 7.0 °F 80% 30.32 in 2.0 mi SE 4.6 mph - 0.00 in Snow Light Snow
6:56 AM 12.2 °F 4.3 °F 6.8 °F 79% 30.29 in 1.8 mi SE 4.6 mph - 0.00 in Snow Light Snow
7:14 AM 12.2 °F - 8.6 °F 85% 30.29 in 1.8 mi Calm Calm - 0.00 in Snow Light Snow
7:37 AM 12.2 °F 6.1 °F 8.6 °F 85% 30.29 in 2.0 mi SE 3.5 mph - 0.01 in Snow Light Snow
7:53 AM 12.0 °F 5.9 °F 8.1 °F 84% 30.33 in 1.8 mi SE 3.5 mph - 0.01 in Snow Light Snow
8:38 AM 12.2 °F - 8.6 °F 85% 30.31 in 1.8 mi Calm Calm - 0.01 in Snow Light Snow
8:49 AM 12.2 °F - 8.6 °F 85% 30.31 in 1.2 mi Calm Calm - 0.01 in Snow Light Snow
8:53 AM 12.9 °F 6.9 °F 8.1 °F 81% 30.34 in 1.0 mi East 3.5 mph - 0.01 in Snow Light Snow
9:28 AM 12.2 °F 6.1 °F 10.4 °F 92% 30.30 in 2.0 mi ESE 3.5 mph - 0.01 in Snow Light Snow
9:37 AM 14.0 °F 8.2 °F 8.6 °F 79% 30.30 in 1.8 mi SE 3.5 mph - 0.01 in Snow Light Snow
9:45 AM 14.0 °F 8.2 °F 8.6 °F 79% 30.30 in 2.5 mi SE 3.5 mph - 0.01 in Snow Light Snow
9:53 AM 14.0 °F 6.5 °F 10.0 °F 84% 30.34 in 3.0 mi SE 4.6 mph - 0.01 in Snow Light Snow
10:29 AM 15.8 °F 6.1 °F 10.4 °F 79% 30.28 in 2.5 mi SE 6.9 mph - 0.00 in Snow Light Snow
10:37 AM 15.8 °F 6.1 °F 10.4 °F 79% 30.28 in 3.0 mi SE 6.9 mph - 0.00 in Snow Light Snow
10:43 AM 15.8 °F 6.1 °F 10.4 °F 79% 30.28 in 1.8 mi SE 6.9 mph - 0.00 in Snow Light Snow
10:53 AM 16.0 °F 6.3 °F 10.9 °F 81% 30.32 in 2.5 mi SSE 6.9 mph - 0.00 in Snow Light Snow
11:00 AM 15.8 °F 4.2 °F 10.4 °F 79% 30.28 in 4.0 mi SSE 9.2 mph - 0.00 in Snow Light Snow
11:53 AM 18.0 °F 7.7 °F 12.0 °F 78% 30.31 in 8.0 mi SSE 8.1 mph - 0.00 in   Overcast
12:53 PM 19.9 °F 11.1 °F 14.0 °F 78% 30.27 in 10.0 mi SE 6.9 mph - N/A   Overcast
1:53 PM 21.0 °F 13.4 °F 15.1 °F 78% 30.22 in 10.0 mi SE 5.8 mph - N/A   Overcast
2:53 PM 23.0 °F 18.4 °F 16.0 °F 74% 30.20 in 10.0 mi SSE 3.5 mph - N/A   Overcast
3:16 PM 23.0 °F - 15.8 °F 74% 30.17 in 10.0 mi Calm Calm - N/A   Overcast
3:53 PM 25.0 °F 16.3 °F 17.1 °F 72% 30.20 in 10.0 mi South 8.1 mph - N/A   Overcast
4:53 PM 24.1 °F 13.7 °F 17.1 °F 75% 30.19 in 10.0 mi South 10.4 mph - N/A   Overcast
5:53 PM 24.1 °F 16.0 °F 17.1 °F 75% 30.19 in 10.0 mi South 6.9 mph - N/A   Overcast
6:53 PM 25.0 °F 20.7 °F 18.0 °F 75% 30.20 in 10.0 mi SSW 3.5 mph - N/A   Overcast
7:53 PM 25.0 °F - 19.0 °F 78% 30.20 in 10.0 mi Calm Calm - N/A   Overcast
8:53 PM 25.0 °F 19.3 °F 19.0 °F 78% 30.19 in 10.0 mi South 4.6 mph - N/A   Overcast
9:53 PM 25.0 °F 20.7 °F 19.9 °F 81% 30.18 in 10.0 mi SSW 3.5 mph - N/A   Overcast
10:53 PM 25.0 °F 20.7 °F 19.9 °F 81% 30.18 in 10.0 mi WSW 3.5 mph - N/A   Overcast
11:08 PM 24.8 °F - 19.4 °F 80% 30.15 in 9.0 mi Calm Calm - N/A   Overcast
11:53 PM 25.0 °F - 19.9 °F 81% 30.17 in 10.0 mi Calm Calm - N/A   Overcast